Return to main menu page
Advertisement


FUSE - Orbit Data

View from orbit pole
View from above orbital plane

View from above satellite
View from above satellite

Ground track

Ground track

The orbit data is extracted from the following two-line orbital elements,

1 25791U 99035A   09322.79376615  .00000334  00000-0  46378-4 0  5640
2 25791 024.9846 100.1082 0010450 098.1959 261.9753 14.41806095548730

Epoch (UTC): 7:03:01 PM, Wednesday, November 18, 2009
Eccentricity: 0.0010450
Inclination: 024.9846°
Perigee Height: 745 km
Apogee Height: 760 km
Right Ascension of Ascending Node: 100.1082°
Argument of Perigee: 098.1959°
Revolutions per Day: 14.41806095
Mean Anomaly at Epoch: 261.9753°
Orbit Number at Epoch: 54873

The dashed part of the orbit path shows where the satellite is in the earth's shadow, and the full part is where it is sunlit.


Developed and maintained by Chris Peat, Heavens-Above GmbH
Please read the updated FAQ before sending e-mail.
GSOC Home Page